| time (UTC) | temp F | wind direction | speed MPH | gust MPH | rain 1hr in | rain 24hr in | rain mn in | humidity % | barometer mb |
| 20260505163450 | 55 | 259 | 0.0 | 4.0 | 0.00 | 0.02 | 0.02 | 92 | 1015.5 |
| 20260505162950 | 55 | 246 | 0.0 | 3.0 | 0.00 | 0.02 | 0.02 | 93 | 1015.5 |
| 20260505162445 | 54 | 253 | 0.0 | 1.0 | 0.00 | 0.02 | 0.02 | 95 | 1015.5 |
| 20260505161941 | 54 | 252 | 0.0 | 0.0 | 0.00 | 0.02 | 0.02 | 96 | 1015.4 |
| 20260505161438 | 54 | 253 | 0.0 | 0.0 | 0.00 | 0.02 | 0.02 | 99 | 1015.3 |
| 20260505160936 | 53 | 248 | 0.0 | 0.0 | 0.00 | 0.02 | 0.02 | 99 | 1015.3 |
| 20260505160434 | 53 | 249 | 0.0 | 1.0 | 0.00 | 0.02 | 0.02 | 99 | 1015.3 |
| 20260505152910 | 53 | 238 | 0.0 | 0.0 | 0.00 | 0.02 | 0.02 | 99 | 1015.0 |
| 20260505152407 | 52 | 238 | 0.0 | 0.0 | 0.00 | 0.02 | 0.02 | 99 | 1014.9 |
| 20260505151907 | 52 | 238 | 0.0 | 0.0 | 0.00 | 0.02 | 0.02 | 99 | 1014.8 |
| 20260505151404 | 53 | 238 | 0.0 | 0.0 | 0.00 | 0.02 | 0.02 | 99 | 1014.9 |
| 20260505150901 | 52 | 238 | 0.0 | 0.0 | 0.00 | 0.02 | 0.02 | 99 | 1014.9 |
| 20260505150358 | 52 | 238 | 0.0 | 0.0 | 0.00 | 0.02 | 0.02 | 99 | 1014.8 |
| 20260505140317 | 52 | 239 | 0.0 | 0.0 | 0.00 | 0.02 | 0.02 | 99 | 1014.4 |
| 20260505130240 | 51 | 238 | 0.0 | 0.0 | 0.00 | 0.02 | 0.02 | 99 | 1014.1 |
| 20260505124730 | 51 | 238 | 0.0 | 0.0 | 0.00 | 0.02 | 0.02 | 99 | 1014.1 |
| 20260505124227 | 51 | 238 | 0.0 | 0.0 | 0.00 | 0.02 | 0.02 | 99 | 1013.9 |
| 20260505123722 | 51 | 238 | 0.0 | 0.0 | 0.00 | 0.02 | 0.02 | 99 | 1014.0 |
| 20260505123220 | 51 | 238 | 0.0 | 0.0 | 0.00 | 0.02 | 0.02 | 99 | 1014.0 |
| 20260505122716 | 51 | 247 | 0.0 | 0.0 | 0.00 | 0.02 | 0.02 | 99 | 1014.0 |
| 20260505122214 | 51 | 247 | 0.0 | 0.0 | 0.00 | 0.02 | 0.02 | 99 | 1014.1 |
| 20260505121710 | 51 | 247 | 0.0 | 0.0 | 0.00 | 0.02 | 0.02 | 99 | 1013.9 |
| 20260505121207 | 51 | 247 | 0.0 | 0.0 | 0.00 | 0.02 | 0.02 | 99 | 1014.0 |
| 20260505120703 | 51 | 247 | 0.0 | 0.0 | 0.00 | 0.02 | 0.02 | 99 | 1014.0 |
| 20260505120159 | 51 | 247 | 0.0 | 0.0 | 0.00 | 0.02 | 0.02 | 99 | 1014.0 |
| 20260505115658 | 51 | 247 | 0.0 | 0.0 | 0.00 | 0.02 | 0.02 | 99 | 1013.9 |
| 20260505115156 | 51 | 247 | 0.0 | 0.0 | 0.00 | 0.02 | 0.02 | 99 | 1014.0 |
| 20260505114653 | 51 | 247 | 0.0 | 0.0 | 0.00 | 0.02 | 0.02 | 99 | 1014.0 |
| 20260505114149 | 51 | 247 | 0.0 | 0.0 | 0.00 | 0.02 | 0.02 | 99 | 1013.9 |
| 20260505113646 | 51 | 247 | 0.0 | 0.0 | 0.00 | 0.02 | 0.02 | 99 | 1014.1 |
| 20260505113143 | 51 | 247 | 0.0 | 0.0 | 0.00 | 0.02 | 0.02 | 99 | 1014.1 |
| 20260505112639 | 51 | 257 | 1.0 | 1.0 | 0.00 | 0.02 | 0.02 | 99 | 1014.1 |
| 20260505112138 | 51 | 250 | 0.0 | 0.0 | 0.00 | 0.02 | 0.02 | 99 | 1014.2 |
| 20260505111637 | 51 | 250 | 0.0 | 0.0 | 0.00 | 0.02 | 0.02 | 99 | 1014.3 |
| 20260505111133 | 51 | 250 | 0.0 | 0.0 | 0.00 | 0.02 | 0.02 | 99 | 1014.2 |
| 20260505110629 | 51 | 250 | 0.0 | 0.0 | 0.00 | 0.02 | 0.02 | 99 | 1014.2 |
| 20260505110127 | 51 | 235 | 0.0 | 0.0 | 0.00 | 0.02 | 0.02 | 99 | 1014.4 |
| 20260505102102 | 51 | 232 | 0.0 | 0.0 | 0.00 | 0.02 | 0.02 | 99 | 1014.4 |
| 20260505101601 | 51 | 232 | 0.0 | 0.0 | 0.00 | 0.02 | 0.02 | 99 | 1014.3 |
| 20260505101056 | 51 | 232 | 0.0 | 0.0 | 0.00 | 0.02 | 0.02 | 99 | 1014.5 |
| 20260505100553 | 51 | 232 | 0.0 | 0.0 | 0.00 | 0.02 | 0.02 | 99 | 1014.5 |
| 20260505100050 | 51 | 234 | 0.0 | 0.0 | 0.00 | 0.02 | 0.02 | 99 | 1014.4 |
| 20260505095546 | 51 | 233 | 0.0 | 0.0 | 0.00 | 0.02 | 0.02 | 99 | 1014.2 |
| 20260505095043 | 51 | 235 | 0.0 | 0.0 | 0.00 | 0.02 | 0.02 | 99 | 1014.2 |
| 20260505094539 | 51 | 235 | 0.0 | 0.0 | 0.00 | 0.02 | 0.02 | 99 | 1014.2 |
| 20260505094036 | 51 | 247 | 0.0 | 0.0 | 0.00 | 0.02 | 0.02 | 99 | 1014.3 |
| 20260505093532 | 51 | 247 | 0.0 | 0.0 | 0.00 | 0.02 | 0.02 | 99 | 1014.4 |
| 20260505093030 | 51 | 251 | 0.0 | 0.0 | 0.00 | 0.02 | 0.02 | 99 | 1014.3 |
| 20260505092527 | 51 | 252 | 0.0 | 0.0 | 0.00 | 0.02 | 0.02 | 99 | 1014.4 |
| 20260505092025 | 51 | 242 | 0.0 | 0.0 | 0.00 | 0.02 | 0.02 | 99 | 1014.2 |
| 20260505091522 | 51 | 245 | 0.0 | 0.0 | 0.00 | 0.02 | 0.02 | 99 | 1014.0 |
| 20260505091020 | 51 | 262 | 0.0 | 0.0 | 0.00 | 0.02 | 0.02 | 99 | 1014.3 |
| 20260505090518 | 51 | 262 | 0.0 | 0.0 | 0.00 | 0.02 | 0.02 | 99 | 1014.5 |
| 20260505090015 | 51 | 255 | 0.0 | 0.0 | 0.00 | 0.02 | 0.02 | 99 | 1014.7 |
| 20260505085513 | 51 | 258 | 0.0 | 0.0 | 0.00 | 0.02 | 0.02 | 99 | 1014.7 |
| 20260505085011 | 51 | 256 | 0.0 | 0.0 | 0.00 | 0.02 | 0.02 | 99 | 1014.7 |
| 20260505084509 | 51 | 255 | 0.0 | 0.0 | 0.00 | 0.02 | 0.02 | 99 | 1014.8 |
| 20260505084007 | 51 | 228 | 0.0 | 0.0 | 0.00 | 0.02 | 0.02 | 99 | 1014.8 |
| 20260505083504 | 51 | 238 | 0.0 | 0.0 | 0.00 | 0.02 | 0.02 | 99 | 1014.9 |
| 20260505083000 | 51 | 242 | 0.0 | 0.0 | 0.00 | 0.02 | 0.02 | 99 | 1014.8 |
| 20260505082455 | 51 | 242 | 0.0 | 0.0 | 0.00 | 0.02 | 0.02 | 99 | 1014.8 |
| 20260505081953 | 51 | 241 | 0.0 | 0.0 | 0.00 | 0.02 | 0.02 | 99 | 1014.8 |
| 20260505081449 | 51 | 241 | 0.0 | 0.0 | 0.00 | 0.02 | 0.02 | 99 | 1014.8 |
| 20260505080946 | 51 | 239 | 0.0 | 0.0 | 0.00 | 0.02 | 0.02 | 99 | 1014.8 |
| 20260505080442 | 51 | 239 | 0.0 | 0.0 | 0.00 | 0.02 | 0.02 | 99 | 1015.0 |
| 20260505075938 | 51 | 239 | 0.0 | 0.0 | 0.00 | 0.02 | 0.02 | 99 | 1014.8 |
| 20260505075435 | 51 | 239 | 0.0 | 0.0 | 0.00 | 0.02 | 0.02 | 99 | 1015.1 |
| 20260505074932 | 51 | 256 | 0.0 | 0.0 | 0.00 | 0.02 | 0.02 | 99 | 1015.2 |
| 20260505074430 | 51 | 258 | 0.0 | 0.0 | 0.00 | 0.02 | 0.02 | 99 | 1015.0 |
| 20260505073926 | 51 | 245 | 0.0 | 0.0 | 0.00 | 0.02 | 0.02 | 99 | 1015.0 |
| 20260505073424 | 51 | 237 | 0.0 | 0.0 | 0.05 | 0.02 | 0.02 | 99 | 1015.0 |
| 20260505072921 | 51 | 238 | 0.0 | 0.0 | 0.05 | 0.02 | 0.02 | 99 | 1015.2 |
| 20260505072417 | 51 | 253 | 0.0 | 0.0 | 0.00 | 0.01 | 0.01 | 99 | 1015.2 |
| 20260505071914 | 51 | 260 | 0.0 | 0.0 | 0.00 | 0.01 | 0.01 | 99 | 1015.2 |
| 20260505071410 | 51 | 222 | 0.0 | 1.0 | 0.00 | 0.01 | 0.01 | 99 | 1015.2 |
| 20260505070908 | 51 | 250 | 0.0 | 0.0 | 0.07 | 0.01 | 0.01 | 99 | 1015.0 |
| 20260505070404 | 51 | 238 | 0.0 | 1.0 | 0.19 | 0.01 | 0.01 | 99 | 1014.9 |
| 20260505065900 | 51 | 261 | 0.0 | 1.0 | 0.14 | 0.53 | 0.53 | 99 | 1015.1 |
| 20260505065356 | 51 | 255 | 1.0 | 3.0 | 0.07 | 0.52 | 0.52 | 99 | 1015.1 |
| 20260505064853 | 51 | 254 | 0.0 | 0.0 | 0.00 | 0.51 | 0.51 | 99 | 1015.3 |
| 20260505064350 | 51 | 251 | 0.0 | 1.0 | 0.05 | 0.51 | 0.51 | 99 | 1015.4 |
| 20260505063849 | 51 | 251 | 0.0 | 0.0 | 0.12 | 0.51 | 0.51 | 99 | 1015.3 |
| 20260505063344 | 51 | 223 | 1.0 | 1.0 | 0.24 | 0.50 | 0.50 | 99 | 1015.2 |
| 20260505062841 | 51 | 262 | 0.0 | 3.0 | 0.24 | 0.48 | 0.48 | 99 | 1015.1 |
| 20260505062339 | 51 | 244 | 0.0 | 0.0 | 0.24 | 0.46 | 0.46 | 99 | 1015.2 |
| 20260505061835 | 51 | 249 | 0.0 | 0.0 | 0.19 | 0.44 | 0.44 | 99 | 1015.3 |
| 20260505061333 | 51 | 265 | 0.0 | 0.0 | 0.14 | 0.42 | 0.42 | 99 | 1015.3 |
| 20260505060831 | 51 | 269 | 0.0 | 0.0 | 0.12 | 0.41 | 0.41 | 99 | 1015.0 |
| 20260505060327 | 51 | 254 | 2.0 | 3.0 | 0.12 | 0.40 | 0.40 | 99 | 1015.4 |
| 20260505055823 | 51 | 253 | 3.0 | 3.0 | 0.07 | 0.39 | 0.39 | 99 | 1015.5 |
| 20260505055319 | 51 | 251 | 0.0 | 0.0 | 0.00 | 0.38 | 0.38 | 99 | 1015.6 |
| 20260505054817 | 51 | 232 | 0.0 | 0.0 | 0.00 | 0.38 | 0.38 | 99 | 1015.4 |
| 20260505054314 | 51 | 235 | 0.0 | 0.0 | 0.00 | 0.38 | 0.38 | 99 | 1015.4 |
| 20260505053812 | 51 | 256 | 0.0 | 0.0 | 0.00 | 0.38 | 0.38 | 99 | 1015.5 |
| 20260505053309 | 51 | 231 | 0.0 | 0.0 | 0.00 | 0.38 | 0.38 | 99 | 1015.4 |
| 20260505052806 | 51 | 261 | 0.0 | 0.0 | 0.05 | 0.38 | 0.38 | 99 | 1015.3 |
| 20260505052304 | 51 | 218 | 0.0 | 0.0 | 0.00 | 0.37 | 0.37 | 99 | 1015.3 |
| 20260505051759 | 51 | 266 | 0.0 | 0.0 | 0.00 | 0.37 | 0.37 | 99 | 1015.4 |
| 20260505051257 | 51 | 266 | 0.0 | 0.0 | 0.00 | 0.37 | 0.37 | 99 | 1015.2 |
| 20260505050755 | 51 | 249 | 0.0 | 3.0 | 0.00 | 0.37 | 0.37 | 99 | 1015.4 |
| 20260505050254 | 51 | 263 | 0.0 | 0.0 | 0.00 | 0.37 | 0.37 | 99 | 1015.6 |
| 20260505041723 | 51 | 234 | 0.0 | 0.0 | 0.07 | 0.37 | 0.37 | 99 | 1015.4 |
| 20260505041220 | 51 | 298 | 0.0 | 0.0 | 0.00 | 0.36 | 0.36 | 99 | 1015.8 |
| 20260505040718 | 51 | 298 | 0.0 | 0.0 | 0.05 | 0.36 | 0.36 | 99 | 1015.9 |
| 20260505040215 | 51 | 295 | 0.0 | 0.0 | 0.05 | 0.36 | 0.36 | 99 | 1015.9 |
| 20260505035712 | 51 | 298 | 0.0 | 0.0 | 0.00 | 0.35 | 0.35 | 99 | 1015.8 |
| 20260505035208 | 51 | 299 | 0.0 | 0.0 | 0.00 | 0.35 | 0.35 | 99 | 1015.7 |
| 20260505034705 | 51 | 320 | 0.0 | 0.0 | 0.07 | 0.35 | 0.35 | 99 | 1015.7 |
| 20260505034202 | 51 | 240 | 0.0 | 0.0 | 0.07 | 0.35 | 0.35 | 99 | 1015.4 |
| 20260505033657 | 51 | 241 | 0.0 | 0.0 | 0.00 | 0.34 | 0.34 | 99 | 1015.0 |
| 20260505033156 | 51 | 340 | 0.0 | 1.0 | 0.00 | 0.34 | 0.34 | 99 | 1014.9 |
| 20260505032654 | 51 | 224 | 0.0 | 0.0 | 0.05 | 0.34 | 0.34 | 99 | 1014.6 |
| 20260505032149 | 51 | 244 | 0.0 | 0.0 | 0.05 | 0.34 | 0.34 | 99 | 1014.5 |
| 20260505031647 | 51 | 253 | 0.0 | 0.0 | 0.07 | 0.33 | 0.33 | 99 | 1014.2 |
| 20260505031143 | 51 | 245 | 0.0 | 0.0 | 0.07 | 0.33 | 0.33 | 99 | 1014.4 |
| 20260505030640 | 51 | 253 | 0.0 | 0.0 | 0.00 | 0.32 | 0.32 | 99 | 1014.6 |
| 20260505030136 | 52 | 246 | 0.0 | 0.0 | 0.05 | 0.32 | 0.32 | 99 | 1014.6 |
| 20260505025632 | 52 | 250 | 0.0 | 0.0 | 0.05 | 0.32 | 0.32 | 99 | 1014.7 |
| 20260505025131 | 52 | 258 | 0.0 | 0.0 | 0.07 | 0.31 | 0.31 | 99 | 1014.8 |
| 20260505024628 | 52 | 259 | 0.0 | 0.0 | 0.12 | 0.30 | 0.30 | 99 | 1014.9 |
| 20260505024125 | 52 | 258 | 0.0 | 0.0 | 0.12 | 0.30 | 0.30 | 99 | 1015.1 |
| 20260505023622 | 52 | 256 | 0.0 | 1.0 | 0.07 | 0.28 | 0.28 | 99 | 1014.9 |
| 20260505023120 | 52 | 246 | 0.0 | 0.0 | 0.07 | 0.28 | 0.28 | 99 | 1015.0 |
| 20260505022617 | 52 | 242 | 0.0 | 0.0 | 0.05 | 0.27 | 0.27 | 99 | 1015.0 |
| 20260505022114 | 52 | 241 | 0.0 | 0.0 | 0.05 | 0.27 | 0.27 | 99 | 1015.2 |
| 20260505021610 | 52 | 258 | 0.0 | 0.0 | 0.07 | 0.26 | 0.26 | 99 | 1015.1 |
| 20260505021107 | 52 | 242 | 0.0 | 0.0 | 0.00 | 0.25 | 0.25 | 99 | 1015.2 |
| 20260505020603 | 52 | 246 | 0.0 | 0.0 | 0.05 | 0.25 | 0.25 | 99 | 1015.4 |
| 20260505020059 | 52 | 246 | 0.0 | 0.0 | 0.07 | 0.24 | 0.24 | 99 | 1015.4 |
| 20260505015556 | 52 | 246 | 0.0 | 0.0 | 0.07 | 0.24 | 0.24 | 99 | 1015.2 |
| 20260505015053 | 52 | 251 | 0.0 | 0.0 | 0.00 | 0.23 | 0.23 | 99 | 1015.2 |
| 20260505014550 | 52 | 250 | 0.0 | 0.0 | 0.00 | 0.23 | 0.23 | 99 | 1015.4 |
| 20260505014047 | 52 | 250 | 0.0 | 0.0 | 0.05 | 0.23 | 0.23 | 99 | 1015.3 |
| 20260505013544 | 52 | 254 | 0.0 | 0.0 | 0.17 | 0.23 | 0.23 | 99 | 1015.4 |
| 20260505013041 | 52 | 240 | 0.0 | 0.0 | 0.12 | 0.22 | 0.22 | 99 | 1015.4 |
| 20260505012539 | 52 | 225 | 0.0 | 0.0 | 0.07 | 0.20 | 0.20 | 99 | 1015.5 |
| 20260505012036 | 52 | 246 | 0.0 | 0.0 | 0.12 | 0.20 | 0.20 | 99 | 1015.6 |
| 20260505011536 | 52 | 255 | 0.0 | 0.0 | 0.05 | 0.19 | 0.19 | 99 | 1015.7 |
| 20260505011034 | 52 | 253 | 0.0 | 0.0 | 0.07 | 0.18 | 0.18 | 99 | 1015.7 |
| 20260505010529 | 52 | 257 | 0.0 | 1.0 | 0.12 | 0.18 | 0.18 | 99 | 1015.7 |
| 20260505010026 | 53 | 245 | 0.0 | 0.0 | 0.05 | 0.17 | 0.17 | 99 | 1015.6 |
| 20260505005522 | 53 | 259 | 0.0 | 0.0 | 0.07 | 0.16 | 0.16 | 99 | 1015.7 |
| 20260505005020 | 53 | 246 | 0.0 | 0.0 | 0.07 | 0.16 | 0.16 | 99 | 1015.7 |
| 20260505004517 | 53 | 254 | 0.0 | 0.0 | 0.07 | 0.15 | 0.15 | 99 | 1015.5 |
| 20260505004014 | 53 | 262 | 0.0 | 0.0 | 0.12 | 0.15 | 0.15 | 99 | 1015.5 |
| 20260505003511 | 53 | 264 | 0.0 | 1.0 | 0.12 | 0.14 | 0.14 | 99 | 1015.4 |
| 20260505003008 | 53 | 258 | 0.0 | 0.0 | 0.07 | 0.13 | 0.13 | 99 | 1015.6 |
| 20260505002503 | 53 | 242 | 0.0 | 0.0 | 0.05 | 0.12 | 0.12 | 98 | 1015.4 |
| 20260505002002 | 53 | 246 | 0.0 | 0.0 | 0.05 | 0.12 | 0.12 | 98 | 1015.4 |
| 20260505001459 | 53 | 242 | 0.0 | 0.0 | 0.07 | 0.11 | 0.11 | 98 | 1015.5 |
| 20260505000956 | 53 | 253 | 0.0 | 0.0 | 0.12 | 0.11 | 0.11 | 98 | 1015.5 |
| 20260505000454 | 53 | 244 | 0.0 | 0.0 | 0.05 | 0.10 | 0.10 | 98 | 1015.5 |
| 20260504235950 | 53 | 257 | 0.0 | 0.0 | 0.07 | 0.09 | 0.09 | 98 | 1015.6 |
| 20260504235448 | 53 | 255 | 0.0 | 0.0 | 0.07 | 0.09 | 0.09 | 97 | 1015.5 |
| 20260504234944 | 53 | 262 | 0.0 | 1.0 | 0.05 | 0.08 | 0.08 | 97 | 1015.4 |
| 20260504234441 | 53 | 254 | 0.0 | 3.0 | 0.05 | 0.08 | 0.08 | 96 | 1015.6 |
| 20260504233938 | 53 | 244 | 0.0 | 5.0 | 0.00 | 0.07 | 0.07 | 96 | 1015.4 |
| 20260504233433 | 53 | 272 | 2.0 | 3.0 | 0.07 | 0.07 | 0.07 | 96 | 1015.6 |
| 20260504232931 | 53 | 244 | 3.0 | 4.0 | 0.07 | 0.07 | 0.07 | 96 | 1015.4 |
| 20260504232428 | 53 | 257 | 2.0 | 4.0 | 0.00 | 0.06 | 0.06 | 96 | 1015.3 |
| 20260504231925 | 53 | 262 | 3.0 | 4.0 | 0.12 | 0.06 | 0.06 | 95 | 1015.2 |
| 20260504231421 | 54 | 253 | 4.0 | 5.0 | 0.12 | 0.05 | 0.05 | 95 | 1015.4 |
| 20260504230917 | 54 | 255 | 0.0 | 0.0 | 0.05 | 0.04 | 0.04 | 96 | 1015.4 |
| 20260504230415 | 54 | 265 | 0.0 | 1.0 | 0.07 | 0.03 | 0.03 | 94 | 1015.5 |
| 20260504225913 | 54 | 261 | 0.0 | 3.0 | 0.07 | 0.03 | 0.03 | 94 | 1015.4 |
| 20260504225410 | 55 | 260 | 0.0 | 1.0 | 0.00 | 0.02 | 0.02 | 94 | 1015.7 |
| 20260504224907 | 55 | 264 | 2.0 | 3.0 | 0.07 | 0.02 | 0.02 | 94 | 1015.5 |
| 20260504224403 | 55 | 273 | 0.0 | 4.0 | 0.12 | 0.02 | 0.02 | 93 | 1015.4 |
| 20260504223901 | 55 | 254 | 0.0 | 3.0 | 0.05 | 0.01 | 0.01 | 92 | 1015.4 |
| 20260504223356 | 56 | 237 | 5.0 | 7.0 | 0.00 | 0.00 | 0.00 | 89 | 1015.5 |
| 20260504222852 | 56 | 256 | 0.0 | 4.0 | 0.00 | 0.00 | 0.00 | 89 | 1015.4 |
| 20260504222349 | 56 | 259 | 0.0 | 4.0 | 0.00 | 0.00 | 0.00 | 89 | 1015.5 |
| 20260504221848 | 57 | 259 | 3.0 | 4.0 | 0.00 | 0.00 | 0.00 | 87 | 1015.7 |
| 20260504221344 | 57 | 245 | 3.0 | 10.0 | 0.00 | 0.00 | 0.00 | 87 | 1015.7 |
| 20260504220841 | 57 | 259 | 3.0 | 5.0 | 0.00 | 0.00 | 0.00 | 86 | 1015.5 |
| 20260504220338 | 57 | 261 | 5.0 | 10.0 | 0.00 | 0.00 | 0.00 | 84 | 1015.4 |
| 20260504215835 | 58 | 239 | 5.0 | 7.0 | 0.00 | 0.00 | 0.00 | 82 | 1015.3 |
| 20260504215331 | 59 | 279 | 7.0 | 10.0 | 0.00 | 0.00 | 0.00 | 80 | 1015.4 |
| 20260504214828 | 59 | 245 | 4.0 | 7.0 | 0.00 | 0.00 | 0.00 | 80 | 1015.2 |
| 20260504214325 | 59 | 249 | 3.0 | 4.0 | 0.00 | 0.00 | 0.00 | 79 | 1015.2 |
| 20260504213821 | 59 | 260 | 5.0 | 5.0 | 0.00 | 0.00 | 0.00 | 77 | 1015.3 |
| 20260504213317 | 59 | 259 | 5.0 | 8.0 | 0.00 | 0.00 | 0.00 | 78 | 1015.2 |
| 20260504212815 | 59 | 251 | 4.0 | 8.0 | 0.00 | 0.00 | 0.00 | 76 | 1015.4 |
| 20260504212311 | 59 | 244 | 4.0 | 10.0 | 0.00 | 0.00 | 0.00 | 76 | 1015.3 |
| 20260504211809 | 60 | 245 | 3.0 | 7.0 | 0.00 | 0.00 | 0.00 | 75 | 1015.5 |
| 20260504211304 | 60 | 247 | 4.0 | 10.0 | 0.00 | 0.00 | 0.00 | 75 | 1015.5 |
| 20260504210802 | 60 | 232 | 3.0 | 5.0 | 0.00 | 0.00 | 0.00 | 73 | 1015.5 |
| 20260504210259 | 61 | 247 | 5.0 | 10.0 | 0.00 | 0.00 | 0.00 | 74 | 1015.4 |
| 20260504205756 | 62 | 248 | 1.0 | 5.0 | 0.00 | 0.00 | 0.00 | 73 | 1015.5 |
| 20260504205254 | 61 | 255 | 0.0 | 4.0 | 0.00 | 0.00 | 0.00 | 75 | 1015.4 |
| 20260504204752 | 61 | 252 | 3.0 | 5.0 | 0.00 | 0.00 | 0.00 | 73 | 1015.4 |
| 20260504204250 | 61 | 263 | 5.0 | 8.0 | 0.00 | 0.00 | 0.00 | 73 | 1015.3 |
| 20260504203749 | 62 | 248 | 4.0 | 5.0 | 0.00 | 0.00 | 0.00 | 73 | 1015.3 |
| 20260504203246 | 61 | 232 | 5.0 | 10.0 | 0.00 | 0.00 | 0.00 | 72 | 1015.3 |
| 20260504202747 | 60 | 262 | 4.0 | 7.0 | 0.00 | 0.00 | 0.00 | 71 | 1015.3 |
| 20260504202244 | 60 | 244 | 4.0 | 5.0 | 0.00 | 0.00 | 0.00 | 75 | 1015.4 |
| 20260504201741 | 60 | 262 | 1.0 | 8.0 | 0.00 | 0.00 | 0.00 | 75 | 1015.3 |
| 20260504201238 | 60 | 254 | 4.0 | 12.0 | 0.00 | 0.00 | 0.00 | 75 | 1015.3 |
| 20260504200736 | 60 | 259 | 5.0 | 11.0 | 0.00 | 0.00 | 0.00 | 76 | 1015.2 |
| 20260504200231 | 61 | 241 | 2.0 | 4.0 | 0.00 | 0.00 | 0.00 | 74 | 1015.3 |
| 20260504195728 | 61 | 255 | 4.0 | 7.0 | 0.00 | 0.00 | 0.00 | 73 | 1015.3 |
| 20260504195224 | 61 | 256 | 5.0 | 7.0 | 0.00 | 0.00 | 0.00 | 74 | 1015.3 |
| 20260504194722 | 61 | 233 | 4.0 | 8.0 | 0.00 | 0.00 | 0.00 | 72 | 1015.3 |
| 20260504194217 | 61 | 255 | 3.0 | 5.0 | 0.00 | 0.00 | 0.00 | 69 | 1015.3 |
| 20260504193714 | 61 | 257 | 2.0 | 4.0 | 0.00 | 0.00 | 0.00 | 70 | 1015.5 |
| 20260504193212 | 61 | 248 | 0.0 | 1.0 | 0.00 | 0.00 | 0.00 | 70 | 1015.2 |
| 20260504192710 | 61 | 237 | 0.0 | 0.0 | 0.00 | 0.00 | 0.00 | 69 | 1015.4 |
| 20260504192208 | 61 | 193 | 1.0 | 3.0 | 0.00 | 0.00 | 0.00 | 69 | 1015.3 |
| 20260504191706 | 60 | 239 | 0.0 | 3.0 | 0.00 | 0.00 | 0.00 | 71 | 1015.3 |
| 20260504191202 | 61 | 257 | 2.0 | 4.0 | 0.00 | 0.00 | 0.00 | 70 | 1015.3 |
| 20260504190658 | 60 | 253 | 4.0 | 5.0 | 0.00 | 0.00 | 0.00 | 69 | 1015.3 |
| 20260504190154 | 62 | 250 | 2.0 | 3.0 | 0.00 | 0.00 | 0.00 | 67 | 1015.5 |
| 20260504185651 | 64 | 233 | 1.0 | 4.0 | 0.00 | 0.00 | 0.00 | 64 | 1015.4 |
| 20260504185148 | 64 | 259 | 0.0 | 1.0 | 0.00 | 0.00 | 0.00 | 64 | 1015.4 |
| 20260504184644 | 63 | 240 | 0.0 | 3.0 | 0.00 | 0.00 | 0.00 | 66 | 1015.4 |
| 20260504184139 | 62 | 217 | 2.0 | 3.0 | 0.00 | 0.00 | 0.00 | 69 | 1015.4 |
| 20260504183636 | 62 | 261 | 0.0 | 3.0 | 0.00 | 0.00 | 0.00 | 71 | 1015.3 |
| 20260504183133 | 63 | 252 | 5.0 | 7.0 | 0.00 | 0.00 | 0.00 | 70 | 1015.3 |
| 20260504182631 | 61 | 256 | 1.0 | 4.0 | 0.00 | 0.00 | 0.00 | 71 | 1015.3 |
| 20260504182128 | 63 | 247 | 3.0 | 5.0 | 0.00 | 0.00 | 0.00 | 70 | 1015.3 |
| 20260504181626 | 60 | 235 | 1.0 | 4.0 | 0.00 | 0.00 | 0.00 | 74 | 1015.4 |
| 20260504181123 | 60 | 249 | 2.0 | 5.0 | 0.00 | 0.00 | 0.00 | 77 | 1015.4 |
| 20260504180622 | 60 | 263 | 3.0 | 5.0 | 0.00 | 0.00 | 0.00 | 73 | 1015.4 |
| 20260504180121 | 60 | 243 | 1.0 | 3.0 | 0.00 | 0.00 | 0.00 | 78 | 1015.4 |
| 20260504175617 | 61 | 261 | 4.0 | 10.0 | 0.00 | 0.00 | 0.00 | 76 | 1015.4 |
| 20260504175114 | 59 | 235 | 5.0 | 7.0 | 0.00 | 0.00 | 0.00 | 77 | 1015.4 |
| 20260504174612 | 60 | 260 | 1.0 | 4.0 | 0.00 | 0.00 | 0.00 | 77 | 1015.4 |
| 20260504174108 | 60 | 250 | 1.0 | 4.0 | 0.00 | 0.00 | 0.00 | 77 | 1015.3 |
| 20260504173605 | 59 | 256 | 5.0 | 5.0 | 0.00 | 0.00 | 0.00 | 78 | 1015.3 |
| 20260504173103 | 59 | 259 | 4.0 | 5.0 | 0.00 | 0.00 | 0.00 | 79 | 1015.4 |
| 20260504172559 | 57 | 258 | 0.0 | 1.0 | 0.00 | 0.00 | 0.00 | 81 | 1015.4 |
| 20260504172056 | 57 | 250 | 4.0 | 5.0 | 0.00 | 0.00 | 0.00 | 82 | 1015.5 |
| 20260504171552 | 57 | 235 | 1.0 | 5.0 | 0.00 | 0.00 | 0.00 | 84 | 1015.3 |
| 20260504171050 | 56 | 148 | 0.0 | 3.0 | 0.00 | 0.00 | 0.00 | 85 | 1015.4 |
| 20260504170545 | 56 | 245 | 0.0 | 0.0 | 0.00 | 0.00 | 0.00 | 88 | 1015.1 |